This is the latest recevied weather packets stored in our database for station/object KE0PRS. If no packets are shown the sender has not sent any weather packets the latest 10 day(s).
| Time | Temp. | Humidity | Pressure | Rain* | Wind** | Luminosity | Snow |
|---|---|---|---|---|---|---|---|
| 1777062672 | 24.44° C | 27% | 1009.7 hPa | 0 mm | - | 699 W/m² | - |
| 1777062370 | 24.44° C | 26% | 1010 hPa | 0 mm | - | 708 W/m² | - |
| 1777062068 | 24.44° C | 27% | 1009.9 hPa | 0 mm | - | 720 W/m² | - |
| 1777061764 | 24.44° C | 27% | 1009.9 hPa | 0 mm | - | 728 W/m² | - |
| 1777061460 | 24.44° C | 27% | 1010 hPa | 0 mm | - | 736 W/m² | - |
| 1777061156 | 24.44° C | 29% | 1010 hPa | 0 mm | - | 743 W/m² | - |
| 1777060851 | 24.44° C | 28% | 1010.1 hPa | 0 mm | - | 754 W/m² | - |
| 1777060546 | 24.44° C | 29% | 1010.3 hPa | 0 mm | - | 765 W/m² | - |
| 1777060243 | 23.89° C | 29% | 1010.5 hPa | 0 mm | - | 770 W/m² | - |
| 1777059938 | 23.89° C | 28% | 1010.6 hPa | 0 mm | - | 780 W/m² | - |
| 1777059634 | 23.33° C | 30% | 1010.5 hPa | 0 mm | - | 784 W/m² | - |
| 1777059332 | 23.89° C | 30% | 1010.5 hPa | 0 mm | - | 789 W/m² | - |
| 1777059028 | 23.89° C | 30% | 1010.6 hPa | 0 mm | - | 791 W/m² | - |
| 1777058728 | 23.33° C | 31% | 1010.6 hPa | 0 mm | - | 796 W/m² | - |
| 1777058424 | 23.33° C | 30% | 1010.7 hPa | 0 mm | - | 802 W/m² | - |
| 1777058122 | 22.78° C | 31% | 1010.7 hPa | 0 mm | - | 805 W/m² | - |
| 1777057821 | 22.78° C | 32% | 1010.7 hPa | 0 mm | - | 804 W/m² | - |
| 1777057516 | 22.78° C | 32% | 1011 hPa | 0 mm | - | 810 W/m² | - |
| 1777057213 | 22.78° C | 32% | 1010.8 hPa | 0 mm | - | 812 W/m² | - |
| 1777056909 | 22.78° C | 32% | 1011 hPa | 0 mm | - | 814 W/m² | - |
| 1777056607 | 22.78° C | 33% | 1011.1 hPa | 0 mm | - | 812 W/m² | - |
| 1777056303 | 21.67° C | 33% | 1011 hPa | 0 mm | - | 813 W/m² | - |
| 1777056000 | 22.22° C | 34% | 1011.1 hPa | 0 mm | - | 812 W/m² | - |
| 1777055696 | 21.67° C | 34% | 1011.4 hPa | 0 mm | - | 812 W/m² | - |
| 1777055396 | 21.11° C | 34% | 1011.3 hPa | 0 mm | - | 812 W/m² | - |
* Rain latest hour (hover to see other rain measurements)
** Current wind speed in m/s (hover to see current wind gust speed)